Вернуться в каталог

COSMOS 789 DEB

АктивенPO
NORAD 36299·DEBRIS·🇷🇺 Russia

Запущен Jan 20, 1976 с Plesetsk Cosmodrome

Loading…

Ближайшие Пролёты (ближайшие 24 часа)

TLE

СвежийSource: Space-Track

Эпоха: Sep 13, 2026, 09:08 UTC

1 36299U 76005C   26256.38110022  .00000560  00000-0  52073-3 0  9996
2 36299  82.9698 117.0221 0027645 245.0030 289.6293 13.80360713864082

Отслеживайте COSMOS 789 DEB в реальном времени с AllMySat

Download on the App Store